Date String (YYYY-MM-DD hh:mm:ss) UTC,Instrument flags,absolute air pressure of the measurement (hPa),sample flow rate (lpm),inlet stack bypass flow (lpm),air temperature of the measurement (°C),ambient temperature measured by the external sensor (°C),aerosol sample conditioner tube jacket temperature (°C),OPC LED temperature (°C),internal box temperature (°C),relative humidity of the measurement (%),span deviation,mass concentration of particles derived from Lorenz-Mie calculation of OPC scattering (μg/m³),mass concentration of particles derived from Lorenz-Mie calculation of OPC scattering (μg/m³),mass concentration of particles derived from Lorenz-Mie calculation of OPC scattering (μg/m³)
DateTimeUTC,F1_M11,P_M11,Q1_M11,Q2_M11,T1_M11,T2_M11,T3_M11,T4_M11,T5_M11,U1_M11,ZSPAN_M11,X2_M11,X0_M11,X1_M11
2023-11-13 11:00:00,SystemResetWarning,0836.1,5.00,000.00,023.6,022.5,000.0,032.0,025.0,9.3,0000.0,0003.27,0009.25,0002.41
2023-11-13 11:01:00,SystemResetWarning,0836.1,5.00,000.00,023.6,022.5,000.0,031.9,025.0,9.3,0000.0,0003.22,0009.69,0002.37
2023-11-13 11:02:00,SystemResetWarning,0836.1,5.00,000.00,023.6,022.5,000.0,031.9,025.0,9.3,0000.0,0003.21,0009.71,0002.36
2023-11-13 11:03:00,SystemResetWarning,0836.1,5.00,000.00,023.5,022.5,000.0,031.9,025.0,9.3,0000.0,0003.19,0009.64,0002.35
2023-11-13 11:04:00,SystemResetWarning,0836.2,5.00,000.00,023.5,022.5,000.0,031.9,025.0,9.3,0000.0,0003.18,0009.23,0002.33
2023-11-13 11:05:00,SystemResetWarning,0836.1,5.00,000.00,023.5,022.5,000.0,031.9,025.0,9.3,0000.0,0003.16,0009.24,0002.32
2023-11-13 11:06:00,SystemResetWarning,0836.1,4.99,000.00,023.5,022.5,000.0,031.9,025.0,9.3,0000.0,0003.14,0009.15,0002.31
2023-11-13 11:07:00,SystemResetWarning,0836.1,5.00,000.00,023.5,022.5,000.0,031.9,025.0,9.3,0000.0,0003.16,0009.16,0002.31
2023-11-13 11:08:00,SystemResetWarning,0836.1,5.00,000.00,023.5,022.5,000.0,031.9,025.0,9.3,0000.0,0003.17,0008.57,0002.31
2023-11-13 11:09:00,SystemResetWarning,0836.1,5.01,000.00,023.5,022.5,000.0,031.9,025.0,9.3,0000.0,0003.18,0007.87,0002.31
2023-11-13 11:10:00,SystemResetWarning,0836.1,5.00,000.00,023.5,022.5,000.0,031.9,025.0,9.3,0000.0,0003.17,0007.64,0002.33
2023-11-13 11:11:00,SystemResetWarning,0836.1,5.00,000.00,023.5,022.5,000.0,031.9,025.0,9.3,0000.0,0003.20,0008.41,0002.34
2023-11-13 11:12:00,SystemResetWarning,0836.1,5.00,000.00,023.5,022.5,000.0,031.9,025.0,9.3,0000.0,0003.19,0008.18,0002.34
2023-11-13 11:13:00,SystemResetWarning,0836.1,5.00,000.00,023.5,022.5,000.0,031.9,025.0,9.3,0000.0,0003.20,0008.29,0002.35
2023-11-13 11:14:00,SystemResetWarning,0836.1,5.00,000.00,023.5,022.5,000.0,031.9,025.0,9.3,0000.0,0003.22,0008.54,0002.35
2023-11-13 11:15:00,SystemResetWarning,0836.1,5.00,000.00,023.5,022.5,000.0,031.9,024.9,9.3,0000.0,0003.26,0008.76,0002.37
2023-11-13 11:16:00,SystemResetWarning,0836.1,5.00,000.00,023.5,022.5,000.0,031.9,024.9,9.3,0000.0,0003.27,0008.87,0002.39
2023-11-13 11:17:00,SystemResetWarning,0836.1,5.00,000.00,023.5,022.5,000.0,031.9,025.0,9.3,0000.0,0003.30,0009.23,0002.40
2023-11-13 11:18:00,SystemResetWarning,0836.1,5.00,000.00,023.5,022.5,000.0,031.9,025.0,9.3,0000.0,0003.30,0009.43,0002.41
2023-11-13 11:19:00,SystemResetWarning,0836.0,5.00,000.00,023.5,022.5,000.0,031.9,025.0,9.4,0000.0,0003.31,0009.92,0002.43
2023-11-13 11:20:00,SystemResetWarning,0836.0,5.00,000.00,023.5,022.5,000.0,031.9,025.0,9.4,0000.0,0003.32,0010.32,0002.44
2023-11-13 11:21:00,SystemResetWarning,0836.0,5.00,000.00,023.5,022.5,000.0,031.9,025.0,9.4,0000.0,0003.31,0010.58,0002.46
2023-11-13 11:22:00,SystemResetWarning,0836.0,5.00,000.00,023.5,022.5,000.0,031.9,025.0,9.4,0000.0,0003.28,0010.10,0002.47
2023-11-13 11:23:00,SystemResetWarning,0836.0,5.00,000.00,023.5,022.5,000.0,031.9,025.0,9.4,0000.0,0003.27,0010.29,0002.48
2023-11-13 11:24:00,SystemResetWarning,0836.1,5.00,000.00,023.5,022.5,000.0,031.9,025.0,9.4,0000.0,0003.27,0010.04,0002.49
2023-11-13 11:25:00,SystemResetWarning,0836.1,4.99,000.00,023.5,022.5,000.0,031.9,025.0,9.4,0000.0,0003.27,0009.70,0002.52
2023-11-13 11:26:00,SystemResetWarning,0836.1,5.01,000.00,023.5,022.5,000.0,031.9,025.0,9.4,0000.0,0003.27,0009.55,0002.56
2023-11-13 11:27:00,SystemResetWarning,0836.1,5.01,000.00,023.5,022.5,000.0,031.9,024.9,9.4,0000.0,0003.33,0009.51,0002.58
2023-11-13 11:28:00,SystemResetWarning,0836.1,5.01,000.00,023.5,022.5,000.0,031.9,024.9,9.4,0000.0,0003.36,0009.12,0002.61
2023-11-13 11:29:00,SystemResetWarning,0836.1,5.00,000.00,023.5,022.5,000.0,031.9,025.0,9.4,0000.0,0003.38,0008.92,0002.64
2023-11-13 11:30:00,SystemResetWarning,0836.1,4.99,000.00,023.5,022.5,000.0,031.9,025.0,9.4,0000.0,0003.41,0008.09,0002.67
2023-11-13 11:31:00,SystemResetWarning,0836.1,4.99,000.00,023.5,022.5,000.0,031.9,025.0,9.4,0000.0,0003.43,0007.84,0002.70
2023-11-13 11:32:00,SystemResetWarning,0836.1,5.00,000.00,023.5,022.6,000.0,031.9,025.0,9.4,0000.0,0003.51,0007.62,0002.75
2023-11-13 11:33:00,SystemResetWarning,0836.1,5.00,000.00,023.5,022.6,000.0,031.9,025.0,9.4,0000.0,0003.58,0007.94,0002.83
2023-11-13 11:34:00,SystemResetWarning,0836.1,5.00,000.00,023.5,022.6,000.0,031.9,025.0,9.4,0000.0,0003.62,0007.57,0002.88
2023-11-13 11:35:00,SystemResetWarning,0836.1,5.01,000.00,023.5,022.6,000.0,031.9,025.0,9.3,0000.0,0003.66,0007.63,0002.93
2023-11-13 11:36:00,SystemResetWarning,0836.0,5.01,000.00,023.5,022.6,000.0,031.9,024.9,9.3,0000.0,0003.67,0007.66,0002.96
2023-11-13 11:37:00,SystemResetWarning,0836.0,5.00,000.00,023.5,022.6,000.0,031.9,025.0,9.3,0000.0,0003.68,0008.00,0002.99
2023-11-13 11:38:00,SystemResetWarning,0836.0,5.00,000.00,023.5,022.6,000.0,031.9,024.9,9.3,0000.0,0003.67,0008.42,0003.01
2023-11-13 11:39:00,SystemResetWarning,0836.1,5.00,000.00,023.5,022.6,000.0,031.9,025.0,9.3,0000.0,0003.66,0008.50,0003.03
2023-11-13 11:40:00,SystemResetWarning,0836.1,4.99,000.00,023.6,022.6,000.0,031.9,025.0,9.3,0000.0,0003.67,0008.50,0003.06
2023-11-13 11:41:00,SystemResetWarning,0836.1,5.00,000.00,023.6,022.6,000.0,031.9,025.0,9.3,0000.0,0003.65,0008.46,0003.08
2023-11-13 11:42:00,SystemResetWarning,0836.1,5.00,000.00,023.6,022.7,000.0,031.9,025.0,9.3,0000.0,0003.63,0008.57,0003.08
2023-11-13 11:43:00,SystemResetWarning,0836.1,5.00,000.00,023.6,022.7,000.0,031.9,025.0,9.4,0000.0,0003.60,0009.11,0003.06
2023-11-13 11:44:00,SystemResetWarning,0836.1,5.00,000.00,023.6,022.7,000.0,031.9,025.0,9.4,0000.0,0003.59,0009.04,0003.03
2023-11-13 11:45:00,SystemResetWarning,0836.1,5.00,000.00,023.6,022.7,000.0,031.9,025.0,9.4,0000.0,0003.59,0009.45,0003.02
2023-11-13 11:46:00,SystemResetWarning,0836.1,5.00,000.00,023.6,022.7,000.0,031.9,025.0,9.4,0000.0,0003.60,0009.45,0003.02
2023-11-13 11:47:00,SystemResetWarning,0836.0,5.00,000.00,023.6,022.7,000.0,031.9,025.0,9.4,0000.0,0003.59,0009.65,0003.00
2023-11-13 11:48:00,SystemResetWarning,0836.0,5.00,000.00,023.6,022.7,000.0,031.9,025.0,9.4,0000.0,0003.56,0009.86,0002.99
2023-11-13 11:49:00,SystemResetWarning,0835.9,5.00,000.00,023.6,022.7,000.0,031.9,025.0,9.3,0000.0,0003.55,0009.48,0002.98
2023-11-13 11:50:00,SystemResetWarning,0835.9,5.00,000.00,023.6,022.6,000.0,031.9,025.0,9.3,0000.0,0003.55,0009.36,0002.98
2023-11-13 11:51:00,SystemResetWarning,0835.9,5.00,000.00,023.6,022.6,000.0,031.9,025.0,9.3,0000.0,0003.58,0009.46,0002.97
2023-11-13 11:52:00,SystemResetWarning,0835.9,5.00,000.00,023.6,022.6,000.0,031.9,025.0,9.3,0000.0,0003.59,0009.44,0002.95
2023-11-13 11:53:00,SystemResetWarning,0836.0,5.00,000.00,023.6,022.6,000.0,031.9,025.0,9.4,0000.0,0003.62,0009.32,0002.99
2023-11-13 11:54:00,SystemResetWarning,0835.9,5.00,000.00,023.6,022.6,000.0,031.9,025.0,9.3,0000.0,0003.65,0008.82,0003.04
2023-11-13 11:55:00,SystemResetWarning,0836.0,5.00,000.00,023.6,022.6,000.0,031.9,025.0,9.3,0000.0,0003.65,0008.62,0003.04
2023-11-13 11:56:00,SystemResetWarning,0835.9,5.00,000.00,023.6,022.5,000.0,031.9,025.0,9.3,0000.0,0003.64,0008.24,0003.03
2023-11-13 11:57:00,SystemResetWarning,0835.9,4.99,000.00,023.6,022.5,000.0,031.9,025.0,9.3,0000.0,0003.64,0008.15,0003.03
2023-11-13 11:58:00,SystemResetWarning,0835.9,4.99,000.00,023.6,022.5,000.0,031.9,025.0,9.4,0000.0,0003.67,0008.11,0003.03
2023-11-13 11:59:00,SystemResetWarning,0836.0,5.00,000.00,023.5,022.5,000.0,031.9,025.0,9.4,0000.0,0003.69,0007.47,0003.03
